User: anonymous   Login
Location: Long Geng
(2.6167°N, 114.1333°E)
Time: 23:06:16
(UTC+00:00)
Language:

Cosmos 2058 Rocket - Orbit

View from above orbital plane
View from above orbital plane
View from above satellite
View from above satellite

Ground track
Ground track

The orbit data is extracted from the following two-line orbital elements,

1 20466U 90010B   21217.46006399  .00000086  00000-0  79432-5 0  9992
2 20466  82.5017  39.3127 0021847  59.7102 300.6269 14.81432334680029
Epoch (UTC): 05 August 2021 11:02:29
Eccentricity: 0.0021847
inclination: 82.5017°
perigee height: 609 km
apogee height: 640 km
right ascension of ascending node: 39.3127°
argument of perigee: 59.7102°
revolutions per day: 14.81432334
mean anomaly at epoch: 300.6269°
orbit number at epoch: 68002

The dashed part of the orbit path shows where the satellite is in the earth's shadow,  

DLR